Location: Unspecified
(54.1780°N, 0.0000°E)
Time: 09:55:27
(UTC+00:00)

Transit 2A - Pass Details

Date: 26 June 2019
Orbit: 594 x 964 km, 66.7° (Epoch: 19 July)

Event Time Altitude Azimuth Distance (km) Brightness Sun altitude
Rises 08:33:41 0° 316° (NW) 3,469 9.0 40.6°
Reaches altitude 10° 08:36:31 10° 307° (NW) 2,468 8.3 41.0°
Maximum altitude 08:41:26 31° 247° (WSW) 1,343 7.3 41.6°
Drops below altitude 10° 08:45:55 10° 186° (S) 2,232 8.7 42.3°
Sets 08:48:21 0° 176° (S) 3,089 9.4 42.6°
